Location: Maccacari
(45.1333°N, 11.1333°E)
Time: 01:20:01
(UTC+00:00)

A-11 Canister half - Pass Details

Date: 24 January 2021
Orbit: 1525 x 1684 km, 47.3° (Epoch: 07 March)

Event Time Altitude Azimuth Distance (km) Brightness Sun altitude
Rises 16:31:17 0° 270° (W) 4,697 13.0 -3.9°
Reaches altitude 10° 16:34:18 10° 272° (W) 3,728 12.3 -4.4°
Maximum altitude 16:43:48 79° 360° (N) 1,612 9.1 -6.0°
Drops below altitude 10° 16:53:38 10° 87° (E) 3,851 10.5 -7.6°
Enters shadow 16:54:36 - 88° (E) 4,156 10.6 -7.8°
Sets 16:56:48 0° 89° (E) 4,858 - -8.1°
